Wetbulb
36.40 36.85 35.76 36.02 37.59 38.34 39.11 37.87 39.06 43.98 45.69 46.28 46.56 48.38 48.63 48.21 47.62 47.47 47.49 47.63 47.90 48.07 48.26 48.40 49.20 48.91 49.00
32.93 34.49 34.14 35.22 35.37 35.55 37.87 39.38 38.12 41.46 44.14 44.96 45.27 45.46 46.16 47.36 47.75 47.02 46.65 46.48 46.15 46.55 46.99 47.23 47.53 48.39 48.47
33.54 35.88 35.96 36.69 36.37 37.26 37.41 37.52 38.07 41.21 43.04 43.85 44.09 44.25 44.66 45.29 46.37 47.03 46.72 46.43 45.77 45.26 45.46 45.51 45.79 46.86 47.27
33.69 33.48 34.44 35.95 36.05 34.56 33.77 35.69 35.51 37.35 39.58 40.88 42.02 42.97 43.87 43.92 44.56 44.57 44.68 45.12 45.41 45.02 44.85 44.57 44.50 44.66 45.46
32.50 32.82 33.12 33.21 32.41 33.93 33.14 34.38 34.75 34.75 34.62 35.13 35.27 36.28 37.29 40.61 41.55 42.92 44.09 44.68 44.23 44.09 44.41 44.50 44.15 44.16 44.47
32.24 31.56 32.03 33.69 34.48 33.12 32.93 32.16 30.33 33.51 32.76 32.59 34.09 33.64 34.49 35.51 39.38 40.95 41.60 41.98 43.36 42.61 42.68 43.00 42.70 43.36 43.95
33.31 32.94 32.75 33.50 32.58 31.46 31.52 32.34 31.47 33.87 33.36 32.14 34.87 33.72 34.99 35.68 39.59 40.52 41.01 41.33 41.65 41.70 41.70 41.72 42.11 42.44 42.62
34.20 34.27 34.78 35.23 35.18 35.23 34.98 34.86 35.41 35.98 35.92 31.10 34.89 33.54 35.22 34.01 38.72 39.92 40.32 40.97 41.26 41.35 41.39 41.58 42.07 41.15 40.87
38.96 39.25 39.12 39.37 38.93 36.59 34.42 31.98 30.74 32.70 35.32 33.88 32.24 32.87 34.41 33.81 34.10 38.59 40.09 40.57 41.01 41.11 41.02 41.94 41.45 40.13 38.87
35.61 36.73 38.08 37.49 38.44 35.33 33.58 31.58 31.33 29.87 33.40 32.18 31.25 33.28 30.99 28.79 30.59 32.79 34.46 39.66 39.86 39.73 40.94 40.67 39.12 35.48 35.05
34.29 34.16 34.87 33.02 31.92 33.50 33.73 33.12 31.54 30.83 34.42 34.73 32.23 32.26 31.64 30.59 26.16 28.42 32.91 33.48 34.42 34.31 37.53 39.02 38.68 38.32 34.67
31.20 31.41 30.81 29.74 31.91 31.42 33.20 34.79 34.67 33.82 34.92 34.76 31.91 32.11 30.80 27.51 27.20 29.26 29.93 30.35 31.72 31.22 32.49 35.19 36.89 37.88 37.96
30.07 30.68 29.91 30.46 30.41 32.41 33.31 32.80 33.70 33.89 34.83 34.03 33.19 32.79 31.85 28.18 27.41 27.91 28.13 29.14 29.50 28.68 30.26 30.24 29.63 29.49 28.63
30.70 30.74 30.92 31.36 30.57 31.80 30.94 31.38 30.97 31.43 32.38 33.30 33.28 32.36 29.76 29.42 28.78 26.61 28.73 25.87 27.91 29.14 29.65 29.64 29.77 29.28 29.36
29.53 29.95 30.17 30.22 29.90 31.96 31.70 31.27 29.86 29.21 29.04 30.58 31.47 31.62 31.23 29.31 26.21 27.73 27.76 27.59 28.73 28.85 28.40 27.58 28.80 29.51 29.05
29.91 30.16 29.54 28.91 29.41 30.98 31.38 30.70 29.26 25.56 24.88 28.28 27.66 27.11 26.96 27.38 30.63 26.75 27.23 27.15 28.12 28.37 28.31 26.41 26.65 28.96 28.84
30.13 29.13 29.09 29.54 31.17 30.36 30.26 28.78 24.90 24.67 24.02 25.49 25.90 21.88 18.13 18.07 25.40 31.08 26.12 26.38 26.47 26.40 27.83 27.51 26.22 27.57 27.98
MSLP
1016.48 1016.14 1015.93 1015.76 1015.55 1015.26 1014.94 1014.63 1014.24 1013.81 1013.42 1013.12 1012.83 1012.59 1012.46 1012.46 1012.48 1012.45 1012.43 1012.44 1012.35 1012.42 1012.40 1012.37 1012.19 1012.18 1012.23
1016.76 1016.21 1015.87 1015.37 1015.09 1014.88 1014.55 1014.17 1013.83 1013.35 1012.88 1012.52 1012.21 1011.96 1011.80 1011.65 1011.55 1011.61 1011.66 1011.69 1011.74 1011.72 1011.76 1011.74 1011.70 1011.47 1011.59
1016.42 1016.15 1015.70 1015.18 1014.60 1014.23 1013.87 1013.55 1013.24 1012.81 1012.31 1011.86 1011.49 1011.22 1010.99 1010.81 1010.65 1010.60 1010.67 1010.78 1010.86 1010.97 1011.07 1011.18 1011.17 1011.05 1010.98
1015.87 1015.58 1015.31 1014.82 1014.47 1013.98 1013.34 1013.01 1012.55 1012.22 1011.79 1011.36 1011.06 1010.65 1010.30 1010.10 1009.90 1009.82 1009.81 1009.84 1009.89 1009.97 1010.17 1010.32 1010.49 1010.55 1010.47
1015.19 1014.73 1014.48 1014.24 1014.00 1013.60 1013.05 1012.46 1011.98 1011.81 1011.16 1010.83 1010.51 1010.25 1009.93 1009.55 1009.31 1009.23 1009.13 1009.02 1009.08 1009.14 1009.26 1009.43 1009.52 1009.70 1009.78
1014.63 1014.14 1013.77 1013.54 1013.17 1012.79 1012.49 1012.11 1011.38 1011.36 1010.80 1010.24 1009.97 1009.60 1009.42 1009.14 1008.75 1008.47 1008.41 1008.28 1008.17 1008.39 1008.64 1008.66 1008.80 1008.82 1009.04
1013.78 1013.51 1012.92 1012.82 1012.49 1012.05 1011.75 1011.20 1010.56 1010.23 1010.32 1009.54 1009.41 1008.95 1008.70 1008.36 1007.99 1007.74 1007.58 1007.47 1007.45 1007.60 1007.79 1007.88 1007.94 1008.10 1008.36
1012.96 1012.39 1012.10 1011.88 1011.58 1011.09 1010.65 1010.01 1009.33 1008.95 1009.23 1008.50 1008.24 1007.80 1007.55 1007.28 1006.99 1006.89 1006.74 1006.57 1006.66 1006.82 1006.94 1007.07 1007.23 1007.47 1007.81
1011.66 1011.15 1010.82 1010.45 1010.18 1009.92 1009.54 1009.40 1008.36 1007.72 1007.67 1007.66 1007.40 1007.00 1006.77 1006.36 1006.11 1005.98 1005.76 1005.74 1005.97 1006.12 1006.29 1006.57 1006.76 1006.90 1007.16
1010.65 1010.08 1009.77 1009.46 1009.22 1009.37 1009.09 1008.48 1007.91 1007.04 1006.70 1007.05 1006.68 1006.71 1006.03 1005.55 1005.45 1005.35 1005.26 1005.21 1005.63 1005.84 1005.88 1006.15 1006.42 1006.61 1006.90
1009.92 1009.48 1009.08 1008.91 1008.64 1008.29 1008.11 1007.87 1007.24 1006.52 1006.32 1006.41 1005.83 1005.89 1005.94 1005.72 1005.54 1005.24 1005.33 1005.57 1005.85 1006.03 1005.96 1005.84 1005.97 1006.08 1006.56
1009.32 1008.79 1008.60 1008.31 1007.67 1007.41 1007.07 1006.80 1006.51 1005.94 1005.75 1005.86 1005.25 1005.13 1005.13 1005.38 1005.53 1005.43 1005.41 1005.60 1005.88 1006.08 1006.20 1006.11 1006.14 1005.93 1006.08
1008.67 1008.15 1007.88 1007.42 1007.01 1006.63 1006.12 1005.89 1005.49 1005.09 1004.80 1004.79 1004.60 1004.45 1004.49 1004.72 1005.02 1005.22 1005.51 1005.58 1005.73 1005.92 1005.99 1006.07 1006.23 1006.32 1006.19
1007.90 1007.54 1007.08 1006.70 1006.26 1005.81 1005.43 1005.04 1004.74 1004.22 1004.13 1004.06 1003.97 1003.91 1004.09 1004.36 1004.68 1005.05 1005.19 1005.48 1005.58 1005.72 1005.84 1005.93 1006.04 1006.08 1006.09
1007.41 1006.84 1006.34 1005.92 1005.42 1004.97 1004.55 1004.29 1004.08 1003.89 1003.88 1003.83 1003.73 1003.77 1003.83 1004.10 1004.66 1004.80 1004.99 1005.23 1005.36 1005.54 1005.72 1005.71 1005.75 1005.89 1005.92
1006.66 1006.12 1005.70 1005.28 1004.73 1004.21 1003.89 1003.65 1003.59 1003.66 1003.79 1003.83 1003.94 1004.08 1004.24 1004.44 1004.47 1004.68 1004.87 1004.99 1005.08 1005.19 1005.26 1005.30 1005.26 1005.32 1005.43
1005.97 1005.54 1005.09 1004.53 1003.89 1003.57 1003.36 1003.29 1003.38 1003.59 1003.71 1003.86 1004.01 1004.20 1004.50 1004.76 1004.69 1004.47 1004.70 1004.81 1004.90 1004.91 1004.90 1004.87 1004.85 1004.86 1004.84
Wind_Speed
6 5 3 5 6 6 8 7 7 18 21 22 23 23 23 23 23 22 22 22 22 22 22 21 22 20 20
5 6 5 6 6 7 7 7 7 14 22 22 23 24 24 24 23 23 22 22 22 22 22 22 22 22 21
8 6 5 6 8 8 8 7 7 16 21 22 23 23 23 24 24 23 22 21 22 22 22 22 22 23 21
7 7 6 6 5 8 9 6 8 6 12 17 21 23 24 24 23 22 21 20 22 24 23 22 21 23 22
8 8 7 6 8 8 9 9 9 6 8 8 7 8 10 17 17 20 21 22 22 21 22 24 23 23 23
8 11 12 9 9 8 8 9 11 5 8 10 6 8 7 8 19 23 23 23 21 21 21 22 23 23 20
13 14 15 11 9 11 11 11 13 10 7 11 9 11 9 10 22 24 24 24 23 21 22 23 23 21 18
12 13 13 12 12 12 13 14 12 11 9 10 9 10 9 8 21 24 23 23 22 22 21 20 21 16 16
24 25 27 27 23 12 10 10 12 12 5 6 7 10 8 9 8 20 22 21 21 22 19 18 17 16 13
14 16 16 16 21 12 10 11 11 11 5 5 5 7 5 2 4 6 5 14 13 14 18 16 14 4 3
12 11 10 7 8 8 9 10 10 11 9 7 3 3 4 4 2 1 3 2 1 3 7 12 10 9 4
11 10 9 8 8 8 11 10 9 14 11 11 6 7 4 2 2 1 1 2 2 2 2 5 7 7 7
10 9 8 8 8 10 9 10 12 11 9 9 8 7 6 3 3 2 3 3 3 3 2 2 2 3 2
8 9 8 8 9 8 8 8 7 7 6 7 7 6 3 3 3 2 3 3 2 2 1 1 2 2 3
10 9 9 8 9 8 7 7 7 4 3 1 1 2 1 4 2 2 2 2 3 2 3 3 3 4 4
9 8 8 9 9 7 7 6 5 2 2 1 1 1 2 3 1 2 2 2 2 4 3 3 4 3 4
8 7 8 8 10 6 5 3 2 2 2 1 1 2 2 2 1 4 2 2 1 2 3 3 1 2 4
Wind_Direction
292 296 279 287 289 288 293 289 281 282 283 283 284 278 267 264 267 270 270 270 267 265 265 263 265 259 264
289 302 301 293 281 289 289 293 288 280 283 283 281 280 279 276 268 266 267 264 267 267 265 266 267 261 258
289 279 278 289 293 288 289 278 272 283 286 283 282 281 279 275 271 262 258 257 257 259 263 262 262 267 258
289 285 277 272 273 293 293 284 287 269 270 273 279 277 273 273 271 271 272 269 269 253 257 256 259 259 259
281 281 274 269 272 285 282 282 276 263 271 270 262 265 269 277 275 275 270 264 257 257 255 259 255 253 250
291 289 287 279 272 274 278 280 282 245 262 269 260 261 253 254 264 268 270 269 255 249 256 256 257 256 247
281 280 284 275 279 281 272 267 272 269 252 269 266 264 260 257 259 264 267 266 258 248 253 254 250 247 246
267 268 269 270 260 267 271 270 271 269 254 263 262 258 263 242 252 260 264 259 246 251 248 250 254 231 243
277 281 285 285 284 296 283 283 284 278 246 249 255 262 251 252 251 253 256 254 254 250 252 255 235 235 245
285 282 275 271 281 281 280 275 274 281 271 245 268 264 262 247 257 255 243 253 250 268 258 239 245 239 194
288 289 280 273 265 269 261 263 263 271 277 262 242 235 236 266 291 250 181 213 232 290 312 251 246 204 163
287 278 271 265 273 273 268 256 260 264 277 262 258 234 221 182 207 200 130 162 177 222 235 266 275 269 215
281 276 270 266 271 282 258 256 261 259 257 251 247 243 222 181 173 177 156 203 202 201 207 210 210 228 245
286 282 278 276 273 272 264 265 265 267 230 250 252 212 186 169 154 164 171 182 182 198 208 230 243 244 232
281 275 280 281 275 274 261 259 253 247 244 236 193 139 119 136 156 165 164 178 183 182 195 225 217 226 230
275 272 277 279 278 271 254 251 247 219 186 176 143 93 60 23 166 172 199 215 198 217 214 235 239 204 230
278 276 278 276 280 280 274 227 209 179 179 155 132 112 102 194 312 249 202 197 217 237 224 220 243 226 226